sat.trackr.live / text

‹ back to catalog

STARLINK-31157

NORAD 58735 · 2024-005H

PAYLOAD ACTIVE UNKNOWN

§ Identity

Operator
Country
US
Launch date
2024-01-07
Launch site
AFETR
Launch vehicle
Mass (kg)
RCS (m²)

Purposes: comms

External: N2YO · Heavens-Above · Gunter

§ Orbital elements

Epoch: 2026-05-24T17:09:38.862432Z

Period
94.27 min
Inclination
43.0022°
Eccentricity
0.0001264
Mean motion
15.27581389 rev/d
Perigee alt
482.2 km
Apogee alt
483.9 km
Semi-major
6,861.2 km
B*
2.1533e-5
RAAN
150.1535°
Arg perigee
273.9773°
Mean anomaly
86.0935°
Rev number
13,207

§ Raw data

STARLINK-311571 58735U 24005H   26144.71503313  .00000331  00000+0  21533-4 0  99932 58735  43.0022 150.1535 0001264 273.9773  86.0935 15.27581389132075

JSON: /api/v1/satellites/58735 · /tle

For live sub-satellite position, see the globe view (requires WebGL).

§ Visibility from observer

Set your observer location to see the next 7 days of passes ≥ 10°. The values pass through the URL so the page stays shareable.

No JS? Fill the form by hand. The geolocation button needs JavaScript.